Location: Astronomy Club of Akron Observatory
(40.9700°N, 81.5606°W)
Time: 18:34:12
(UTC-04:00)

Daily predictions for brighter satellites

Satellite Brightness Start Highest point End
(mag) Time Altitude Azimuth Time Altitude Azimuth Time Altitude Azimuth
NOSS 3-2 (C) 4.4 19:37:33 10° SSE 19:42:17 24° ESE 19:47:18 10° ENE
Cosmos 1437 3.4 19:42:04 10° N 19:45:06 34° ENE 19:48:07 10° SE
Cosmos 1371 Rocket 4.2 19:39:57 10° N 19:45:09 55° ENE 19:50:22 10° SE
Resurs 01 Rocket 2.4 19:41:54 10° SE 19:45:49 31° ENE 19:49:46 10° N
SAR-Lupe-1 4.1 19:42:42 10° SSE 19:46:12 59° ENE 19:49:43 10° N
Meteor 2-5 Rocket 3.7 19:41:18 10° N 19:47:00 82° E 19:52:33 10° SSE
Okean 3 Rocket 3.9 19:46:07 10° N 19:50:32 48° E 19:54:55 10° SSE
Cosmos 1441 Rocket 3.1 19:48:48 10° N 19:52:33 85° E 19:56:17 10° S
Cosmos 2219 Rocket 3.0 19:47:24 10° SW 19:52:55 58° WNW 19:58:30 10° NNE
ALOS 3.5 19:49:56 10° ESE 19:53:29 22° ENE 19:57:05 10° NNE
Helios 1B rocket 3.1 19:50:48 10° NNE 19:54:31 32° E 19:58:12 10° SSE
Cosmos 2278 Rocket 2.3 19:49:11 10° NNW 19:54:53 90° WSW 20:00:32 10° SSE
Aureole 2 Rocket 3.6 19:51:35 10° SSE 19:55:32 34° ESE 19:59:28 10° NE
Meteor 1-24 Rocket 3.8 19:50:01 10° N 19:55:39 56° ENE 20:01:01 10° SSE
SJ-6B 2.8 19:52:27 10° SSE 19:56:22 73° ENE 20:00:24 10° N
FREGAT/IRIS 2.8 19:53:39 10° SSE 19:56:40 52° ENE 19:59:42 10° N
Cosmos 2297 4.0 19:51:45 10° NNW 19:57:15 48° ENE 20:02:40 10° SE
Meteor 1-28 Rocket 3.1 19:57:27 10° NNE 20:01:11 71° E 20:04:53 10° S
Cosmos 1707 2.8 19:57:50 10° N 20:01:42 82° W 20:05:33 10° S
Cosmos 1624 Rocket 4.0 19:58:16 10° NNW 20:03:30 65° ENE 20:08:37 10° SSE
METEOR-M 4.2 20:00:33 10° SSE 20:05:49 62° ENE 20:11:06 10° N
Cosmos 1378 3.4 20:02:49 10° N 20:06:26 45° E 20:10:01 10° SSE
FENGYUN 3A 4.3 20:05:01 10° SE 20:09:48 34° ENE 20:14:37 10° N
Cosmos 2369 Rocket 4.1 20:12:29 10° NNE 20:14:28 12° NE 20:16:29 10° ENE
CZ-4C R/B 2.7 20:10:21 10° SW 20:15:36 62° NW 20:21:34 10° NNE
OAO 3 Rocket 4.2 20:11:34 10° SW 20:15:45 31° SSE 20:18:46 16° ESE
Meteor 1-29 3.3 20:12:22 10° NNE 20:15:46 44° E 20:19:07 10° S
HJ-1C 3.3 20:14:25 10° SSE 20:17:45 70° ENE 20:21:07 10° N
ATLAS CENTAUR R/B 1.3 20:14:49 10° NNW 20:19:05 88° WSW 20:22:58 10° SSE
FengYun 1-2 T 4.3 20:14:45 10° SSE 20:20:09 58° ENE 20:25:33 10° N
USA 215 3.3 20:15:37 10° NE 20:22:11 84° NW 20:28:43 10° SW
Cosmos 2333 Rocket 3.5 20:18:32 10° SW 20:24:01 44° WNW 20:29:32 10° NNE
Atlas Centaur 2 3.9 20:18:24 10° WSW 20:25:58 36° S 20:31:49 14° SE
Cosmos 1452 Rocket 3.8 20:27:33 10° N 20:32:37 46° ENE 20:36:02 20° SE
ERS-1 Rocket 4.4 20:34:26 19° ENE 20:35:00 19° ENE 20:38:31 10° NNE
Cosmos 2034 Rocket 4.0 20:30:18 10° S 20:36:26 63° E 20:42:40 10° NNE
Helios 1A 3.1 20:32:53 10° S 20:37:03 80° WSW 20:41:16 10° NNW
Cosmos 1464 Rocket 4.0 20:34:03 10° S 20:40:20 90° SW 20:46:35 10° N
Meteor 2-12 Rocket 4.5 20:35:59 10° S 20:41:59 58° E 20:48:01 10° NNE
SeaSat 1 2.6 20:41:10 10° NE 20:45:57 48° ESE 20:50:42 10° S
Cosmos 1766 4.2 20:42:47 10° SSW 20:46:37 51° W 20:50:31 10° N
Cosmos 1674 4.0 20:45:25 10° NNE 20:47:51 25° NE 20:47:51 25° NE
Cosmos 1766 Rocket 3.5 20:45:12 10° N 20:49:36 89° ENE 20:53:58 10° S
In-Cosmos 22 4.2 20:44:20 10° N 20:50:08 84° E 20:55:54 10° S
ASTRO E2 4.4 20:51:07 10° SW 20:54:07 20° S 20:54:17 20° S
Cosmos 2237 Rocket 4.2 20:50:13 10° WSW 20:55:10 30° NW 21:00:08 10° N
Cosmos 192 4.4 20:50:31 10° SSW 20:55:28 79° WNW 21:00:28 10° NNE
H-2A R/B 4.4 20:57:31 11° NE 20:57:31 11° NE 20:57:48 10° NE
NOSS 3-2 (A) 3.5 20:50:07 10° SW 20:56:11 80° NW 21:02:50 10° NNE
Cosmos 1420 Rocket 4.4 20:52:38 10° N 20:57:41 43° ENE 20:58:50 38° E
CZ-4B DEB 4.5 20:57:49 60° ESE 20:58:09 64° ENE 21:01:45 10° N
Cosmos 1953 2.2 20:54:28 10° S 20:58:27 86° W 21:02:27 10° N
CZ-4B DEB 3.0 20:57:57 32° S 20:59:19 68° W 21:02:35 10° NNW
CZ-2D R/B 3.2 21:01:16 33° S 21:02:59 86° W 21:06:55 10° NNW
Cosmos 1269 Rocket 4.1 21:02:31 10° S 21:07:36 51° ESE 21:12:43 10° NNE
BREEZE-M DEB (TANK) 3.9 20:57:55 10° W 21:10:51 58° N 21:12:53 34° ENE
ATLAS 5 CENTAUR R/B 1.7 21:06:08 10° SSW 21:10:54 87° SE 21:16:05 10° NE
SL-16 R/B 3.2 21:07:19 10° SW 21:12:46 47° WNW 21:18:17 10° NNE
Cosmos 724 4.2 21:06:56 10° SSW 21:12:47 70° ESE 21:18:49 10° NE
Cosmos-2242 3.6 21:15:23 10° SSW 21:19:39 57° W 21:23:59 10° N
Cosmos 1842 Rocket 4.4 21:23:01 37° NNE 21:23:01 37° NNE 21:25:45 10° NNE
Cosmos 1805 4.4 21:17:56 10° SSW 21:21:42 44° WNW 21:25:29 10° N
Resurs 01 Rocket 3.9 21:18:43 10° SSW 21:22:18 24° W 21:25:54 10° NW
H-2A R/B 3.7 21:23:13 31° SSW 21:24:38 47° W 21:28:26 10° NNW
Cosmos 1500 Rocket 3.6 21:20:30 10° N 21:24:25 65° NNE 21:24:25 65° NNE
Envisat 3.5 21:27:01 44° NE 21:27:01 44° NE 21:31:07 10° N
ALOS 3.6 21:26:22 10° SSW 21:30:42 38° W 21:35:03 10° NNW
NOSS 3-2 (C) 4.0 21:26:36 10° SW 21:32:36 58° NW 21:39:12 10° NNE
ASTEX 1 4.3 21:33:51 10° N 21:38:35 48° W 21:43:16 10° SSW
Cosmos 1655 Rocket 4.3 21:38:05 10° N 21:43:17 50° NE 21:43:17 50° NE
GP-B 4.1 21:51:10 10° N 21:54:30 44° NW 21:54:30 44° NW
Cosmos 1092 Rocket 4.4 21:51:59 10° NNW 21:58:05 60° W 22:00:03 41° SSW
Cosmos 2142 Rocket 4.5 21:58:09 64° SSW 21:59:14 82° W 22:05:40 10° N
Cosmos 2369 Rocket 2.7 21:53:57 10° NNW 21:58:21 52° N 21:58:21 52° N
Cosmos 1603 4.5 21:54:05 10° SW 21:59:39 51° WNW 22:05:16 10° NNE
Cosmos 1634 Rocket 4.3 22:09:54 48° SW 22:11:28 62° W 22:17:39 10° N
ERS-1 Rocket 4.0 22:14:27 44° WNW 22:14:27 44° WNW 22:18:17 10° NNW
Atlas Centaur 2 4.4 22:08:57 10° WSW 22:14:28 21° SSW 22:14:28 21° SSW
Cosmos 1943 Rocket 3.7 22:09:40 10° N 22:12:33 27° N 22:12:33 27° N
Cosmos 2026 Rocket 4.2 22:09:58 10° N 22:15:08 64° NNW 22:15:08 64° NNW
Exosat Rocket 4.4 22:10:19 10° NNW 22:16:54 83° ENE 22:16:54 83° ENE
Cosmos 839 Rocket 4.4 22:23:15 10° NNW 22:29:59 68° NW 22:29:59 68° NW
ATLAS 5 CENTAUR R/B 4.4 22:53:02 10° WNW 22:56:23 18° NW 22:58:05 15° N
